Location: Lavington
(51.2833°N, 1.9833°W)
Time: 02:10:01
(UTC+00:00)

STARLINK-1222 - Pass Details

Date: 01 June 2020
Orbit: 549 x 550 km, 53.0° (Epoch: 11 July)

Event Time Altitude Azimuth Distance (km) Brightness Sun altitude
Rises 21:43:04 0° 286° (WNW) 2,694 8.0 -10.1°
Reaches altitude 10° 21:45:18 10° 286° (WNW) 1,798 7.0 -10.3°
Maximum altitude 21:49:23 89° 201° (SSW) 542 3.5 -10.6°
Drops below altitude 10° 21:53:27 10° 109° (ESE) 1,786 5.8 -11.0°
Enters shadow 21:53:35 - 109° (ESE) 1,840 5.8 -11.0°
